Regional Weather Roundup
Issued by NWS

Home | Current Version | Previous Version | Graphics & Text | Print | Product List | Glossary On
Versions: 1 2 3 4 5 6 7 8 9 10 11 12 13 14 15 16 17 18 19 20 21 22 23 24 25 26 27 28 29 30 31 32 33 34 35 36 37 38 39 40 41 42 43 44 45 46 47 48 49 50
000
ASUS43 KOAX 192202
RWRNE

WEATHER ROUNDUP FOR NEBRASKA
NATIONAL WEATHER SERVICE OMAHA NE
500 PM CDT SUN OCT 19 2014

NOTES: SATELLITE DATA IS BEING USED TO AUGMENT CLOUD COVER ABOVE
       12000 FEET.
       "FAIR" INDICATES FEW OR NO CLOUDS BELOW 12,000 FEET WITH NO
       SIGNIFICANT WEATHER AND/OR OBSTRUCTIONS TO VISIBILITY.

  * THESE STATIONS DO NOT REPORT WEATHER SUCH AS RAIN...SNOW OR FOG.

NEZ001>004-019>022-054>056-192300-
NEBRASKA PANHANDLE

CITY           SKY/WX    TMP DP  RH WIND       PRES   REMARKS
SCOTTSBLUFF    SUNNY     74  44  34 CALM      30.05S
ALLIANCE       SUNNY     74  34  23 E7        30.05R
CHADRON        SUNNY     73  39  29 CALM      30.04R
KIMBALL        SUNNY     71  34  25 E7        30.08S
SIDNEY         SUNNY     73  37  27 NE7       30.07S
$$

NEZ057>060-069>072-079>082-192300-
SOUTHWEST NEBRASKA

CITY           SKY/WX    TMP DP  RH WIND       PRES   REMARKS
NORTH PLATTE   SUNNY     77  37  23 NE8       29.98S
IMPERIAL       MOSUNNY   77  39  25 NE12      30.00S
LEXINGTON      SUNNY     73  48  41 CALM      29.98S
MCCOOK         MOSUNNY   73  47  39 E7        29.98S
OGALLALA       SUNNY     79  35  20 E6        30.00S HAZE
$$

NEZ005>010-023>029-035>040-094-192300-
NORTH CENTRAL NEBRASKA

CITY           SKY/WX    TMP DP  RH WIND       PRES   REMARKS
VALENTINE      SUNNY     78  35  21 N12       29.99R
AINSWORTH      SUNNY     75  36  23 N9        29.98S
BROKEN BOW     SUNNY     79  43  27 N5        29.97S
O`NEILL        SUNNY     76  43  30 N9        29.95S
ORD            SUNNY     75  43  31 VRB3      29.94S
THEDFORD       SUNNY     77  39  25 N10       30.00S
$$

NEZ041-046>049-061>064-073>077-083>087-192300-
SOUTH CENTRAL NEBRASKA

CITY           SKY/WX    TMP DP  RH WIND       PRES   REMARKS
GRAND ISLAND   SUNNY     75  49  39 W12       29.96S
AURORA         SUNNY     73  43  33 SW9G16    29.96S
HASTINGS       SUNNY     72  44  36 SW8       29.96F
HEBRON         SUNNY     73  45  37 SW9G16    29.97S
HOLDREGE       SUNNY     71  46  40 CALM      29.98S
KEARNEY *      SUNNY     72  48  43 S7        29.98S
YORK           SUNNY     73  46  38 W14       29.96S
$$

NEZ011>018-030>034-042>045-192300-
NORTHEAST NEBRASKA

CITY           SKY/WX    TMP DP  RH WIND       PRES   REMARKS
NORFOLK        SUNNY     74  45  35 W6        29.92S
ALBION         SUNNY     74  42  32 CALM      29.95R
BLAIR          MOSUNNY   74  46  37 SW12G17   29.93S
COLUMBUS *     SUNNY     73  46  38 W9        29.95S
FREMONT        SUNNY     74  47  37 SW8       29.93S
TEKAMAH        SUNNY     75  48  38 W12       29.91S
WAYNE          SUNNY     75  45  34 W9        29.92S
$$

NEZ050>053-065>068-078-088>093-192300-
SOUTHEAST NEBRASKA

CITY           SKY/WX    TMP DP  RH WIND       PRES   REMARKS
LINCOLN        MOSUNNY   73  46  38 SW15      29.95F
OMAHA EPPLEY   MOSUNNY   72  47  40 SW9       29.93F
BEATRICE       MOSUNNY   71  48  44 SW15      29.97S
FALLS CITY     MOSUNNY   70  46  42 SW10      29.97F
NEBRASKA CITY  SUNNY     71  40  33 SW13G18   29.96F
PLATTSMOUTH    SUNNY     72  44  36 SW10      29.95S
$$

NEZ044-045-051>053-067-192300-
OMAHA AREA

CITY           SKY/WX    TMP DP  RH WIND       PRES   REMARKS
OMAHA EPPLEY   MOSUNNY   72  47  40 SW9       29.93F
BLAIR          MOSUNNY   74  46  37 SW12G17   29.93S
FREMONT        SUNNY     74  47  37 SW8       29.93S
MILLARD        SUNNY     73  50  44 SW7       29.94S
OFFUTT AFB     MOSUNNY   72  50  45 SW9       29.93S
PLATTSMOUTH    SUNNY     72  44  36 SW10      29.95S
WAHOO          FAIR      74  43  32 SW7       29.94S
$$



USA.gov is the U.S. government's official web portal to all federal, state and local government web resources and services.